DELTA 1 DEB, 2707

Orbit data source: Space-Track

DELTA 1 DEB, 2707 is space debris in SSO originally from a launch on Thu, 26 Jan 1967 UTC launched from the Air Force Western Test Range (AFWTR). Debris objects in space refer to the collection of defunct objects orbiting the Earth. Examples of debris include non-operational satellites, rocket bodies, and fragments generated from explosions, collisions, or faulty payload assembly.

Loading next visibility...
Identifier
2707, 1967-006D
Orbit
SSO
Last TLE update
2 days ago
Origin
Manufacturer
Unknown
Mission
Spacecraft
Bus & Motor
Unknown
Mass
Unknown
Launch date (UTC)
1967-01-26 (58 years ago)
Launch vehicle
Unknown
Launch site
Air Force Western Test Range (AFWTR)
Object type
Payload
Rocket body
Debris
Shape & HBR
Unknown
Radar Cross Section
Small (<0.1 m²)

Expand to show TLE details & history

TLE from 2 days ago
0 DELTA 1 DEB
1 02707U 67006D   25180.83301228 -.00000018  00000-0  13160-3 0  9992
2 02707 101.8408 129.0870 0149247 356.3754  60.2587 12.79385909727295
Epoch: 2025-06-29T19:59Z
TLE epoch observation values (Epoch: 2025-06-29T19:59:32.26Z)
Latitude
56.31858°
Longitude
-107.18946°
Altitude
1,297.274 km
Speed
7.239 km/s
True Right ascension
07h 23m 23s
True Declination
56° 10' 15"
Sunlit
Object was in daylight at epoch
Visualization orbit readout
Latitude
-52.63563°
Longitude
76.7903°
Altitude
1,419.14 km
Speed
7.125 km/s
Apparent Right ascension
13h 06m 02s
Apparent Declination
-85° 56' 14"
Sunlit
Object is in full shadow
Visualization observer readout
Local Sidereal Time
20:13:06
Azimuth
185.155° SSW
Elevation
-40.975°
Doppler factor
1
Orbital elements
Apogee altitude
1,456.666 km
Perigee altitude
1,226.241 km
Semi-major axis
7,719.59 km
Eccentricity
0.01492
Inclination
101.8408°
RAAN
129.087°
Arg. of periapsis
356.3754°
True anomaly
Unknown
Mean anomaly
60.2587°
Eccentric anomaly
Unknown
Mean motion
3.20001 °/min
Orbital period
112.5 mins
BSTAR
0.0001316
Loading maneuver chart data...
Loading SW <> Apogee altitude chart data...
Loading historical data...
Loading historical data...
Loading historical data...
Loading historical data...
Loading historical data...
Loading historical data...
Loading historical data...
Other satellites on launch #6 in the year 1967 (1967-01-26 UTC)

DELTA 1 DEB Visibility forecast

Observer location: undefined°, undefined°

Span
Click to sort rows by Start time (UTC) header in descending order
Start Az.
Max El. time (UTC)
Max El. Az.
Max El.
End time (UTC)
End Az.
16 mins2025-07-01 09:48:58.147Z14.565° NNE2025-07-01 09:56:58.147Z279.037° WNW44.363°2025-07-01 10:04:58.147Z206.351° SW
8 mins2025-07-01 11:42:58.147Z335.805° NNW2025-07-01 11:45:58.147Z310.609° NW17.422°2025-07-01 11:50:58.147Z271.981° WNW
9 mins2025-07-01 18:47:58.147Z93.8° ESE2025-07-01 18:51:58.147Z53.048° ENE22.412°2025-07-01 18:56:58.147Z8.348° NNE
13 mins2025-07-01 20:35:58.147Z172.577° S2025-07-01 20:41:58.147Z273.907° WNW43.23°2025-07-01 20:48:58.147Z338.217° N
12 mins2025-07-02 08:22:58.147Z40.066° NE2025-07-02 08:28:58.147Z91.816° ESE27.687°2025-07-02 08:34:58.147Z149.817° SSE
|